Location: Dammartin
(48.9032°N, 1.6195°E)
Time: 10:15:20
(UTC+00:00)

Cosmos 2322 Rocket - Pass Details

Date: 03 February 2023
Orbit: 831 x 852 km, 71.0° (Epoch: 28 March)

Event Time Altitude Azimuth Distance (km) Brightness Sun altitude
Rises 18:15:01 0° 199° (SSW) 3,363 5.7 -13.6°
Reaches altitude 10° 18:17:27 10° 197° (SSW) 2,433 4.9 -13.9°
Maximum altitude 18:22:59 71° 114° (ESE) 881 2.1 -14.8°
Drops below altitude 10° 18:28:34 10° 32° (NNE) 2,453 4.2 -15.8°
Enters shadow 18:28:50 - 32° (NNE) 2,553 4.3 -15.8°
